This is the latest recevied weather packets stored in our database for station/object K7FRY. If no packets are shown the sender has not sent any weather packets the latest 10 day(s).
| Time | Temp. | Humidity | Pressure | Rain* | Wind** | Luminosity | Snow |
|---|---|---|---|---|---|---|---|
| 1777933797 | 25.56° C | 27% | 1014.4 hPa | 0 mm | - | 190 W/m² | - |
| 1777933495 | 25.56° C | 27% | 1014.5 hPa | 0 mm | - | 197 W/m² | - |
| 1777933193 | 25.56° C | 27% | 1014.4 hPa | 0 mm | - | 154 W/m² | - |
| 1777932890 | 26.11° C | 27% | 1014.7 hPa | 0 mm | - | 168 W/m² | - |
| 1777932587 | 26.11° C | 27% | 1014.5 hPa | 0 mm | - | 193 W/m² | - |
| 1777932283 | 26.67° C | 27% | 1014.2 hPa | 0 mm | - | 193 W/m² | - |
| 1777931980 | 26.11° C | 27% | 1014.2 hPa | 0 mm | - | 214 W/m² | - |
| 1777931677 | 26.67° C | 27% | 1014.2 hPa | 0 mm | - | 208 W/m² | - |
| 1777931373 | 26.67° C | 26% | 1014.2 hPa | 0 mm | - | 179 W/m² | - |
| 1777931070 | 26.67° C | 26% | 1014.4 hPa | 0 mm | - | 188 W/m² | - |
| 1777930767 | 27.22° C | 26% | 1014.1 hPa | 0 mm | - | 294 W/m² | - |
| 1777930462 | 27.22° C | 25% | 1014.4 hPa | 0 mm | - | 397 W/m² | - |
| 1777930160 | 26.67° C | 25% | 1014.5 hPa | 0 mm | - | 286 W/m² | - |
| 1777929855 | 26.67° C | 24% | 1014.6 hPa | 0 mm | - | 204 W/m² | - |
| 1777929554 | 26.67° C | 24% | 1014.1 hPa | 0 mm | - | 206 W/m² | - |
| 1777929250 | 26.67° C | 25% | 1014.1 hPa | 0 mm | - | 230 W/m² | - |
| 1777928947 | 26.11° C | 25% | 1014.4 hPa | 0 mm | - | 209 W/m² | - |
| 1777928644 | 26.11° C | 25% | 1014.4 hPa | 0 mm | - | 188 W/m² | - |
| 1777928341 | 26.11° C | 25% | 1014.1 hPa | 0 mm | - | 126 W/m² | - |
| 1777928039 | 26.11° C | 24% | 1014.2 hPa | 0 mm | - | 108 W/m² | - |
| 1777927737 | 26.11° C | 24% | 1014.1 hPa | 0 mm | - | 107 W/m² | - |
| 1777927435 | 26.67° C | 23% | 1013.8 hPa | 0 mm | - | 141 W/m² | - |
| 1777927134 | 26.11° C | 23% | 1013.9 hPa | 0 mm | - | 213 W/m² | - |
| 1777926830 | 26.67° C | 23% | 1014 hPa | 0 mm | - | 231 W/m² | - |
| 1777926526 | 26.67° C | 24% | 1014.1 hPa | 0 mm | - | 273 W/m² | - |
* Rain latest hour (hover to see other rain measurements)
** Current wind speed in m/s (hover to see current wind gust speed)